Location: Arrodets-la-Barthe
(43.0306°N, 0.2829°E)
Time: 11:42:04
(UTC+00:00)

ESTCUBE 1 - Visible Passes

Search period start: 02 April 2023 00:00
Search period end: 12 April 2023 00:00
Orbit: 642 x 655 km, 97.9° (Epoch: 02 April)

Date Brightness Start Highest point End Pass type
(mag) Time Alt. Az. Time Alt. Az. Time Alt. Az.
02 Apr ? 21:18:41 22° NNE 21:18:41 22° NNE 21:20:35 10° N visible
02 Apr ? 22:56:26 11° NW 22:56:26 11° NW 22:56:46 10° NW visible
03 Apr ? 21:44:54 25° N 21:44:54 25° N 21:46:51 10° N visible
04 Apr ? 20:33:21 13° NE 20:33:21 13° NE 20:34:36 10° NNE visible
04 Apr ? 22:11:06 23° NNW 22:11:06 23° NNW 22:12:51 10° NNW visible
05 Apr ? 20:59:33 20° NE 20:59:33 20° NE 21:01:34 10° NNE visible
05 Apr ? 22:37:18 17° NW 22:37:18 17° NW 22:38:34 10° NNW visible
06 Apr ? 21:25:45 27° NNE 21:25:45 27° NNE 21:28:03 10° N visible
06 Apr ? 23:03:29 11° NW 23:03:29 11° NW 23:03:51 10° NW visible
07 Apr ? 21:51:56 30° N 21:51:56 30° N 21:54:12 10° N visible
08 Apr ? 20:40:22 16° NE 20:40:22 16° NE 20:42:16 10° NNE visible
08 Apr ? 22:18:07 25° NNW 22:18:07 25° NNW 22:20:07 10° NNW visible
09 Apr ? 21:06:32 24° NE 21:06:32 24° NE 21:09:01 10° N visible
09 Apr ? 22:44:17 18° NW 22:44:17 18° NW 22:45:42 10° NW visible
10 Apr ? 21:32:43 32° NNE 21:32:43 32° NNE 21:35:22 10° N visible
10 Apr ? 23:10:27 11° NW 23:10:27 11° NW 23:10:43 10° NW visible
11 Apr ? 20:21:07 11° ENE 20:21:07 11° ENE 20:22:13 10° NE visible
11 Apr ? 21:58:52 34° NNW 21:58:52 34° NNW 22:01:26 10° NNW visible
